Location: Boiro
(42.6475°N, 8.8834°W)
Time: 02:28:49
(UTC+01:00)

Transit 2A Rocket - Pass Details

Date: 07 December 2021
Orbit: 584 x 917 km, 66.7° (Epoch: 23 January)

Event Time Altitude Azimuth Distance (km) Brightness Sun altitude
Rises 06:53:58 0° 163° (SSE) 3,282 8.7 -21.0°
Reaches altitude 10° 06:57:03 10° 144° (SE) 2,419 8.2 -20.4°
Maximum altitude 07:00:43 18° 103° (ESE) 1,979 8.1 -19.8°
Drops below altitude 10° 07:04:33 10° 63° (ENE) 2,549 8.4 -19.1°
Sets 07:07:53 0° 45° (NE) 3,530 8.9 -18.5°
